Regional Weather Roundup
Issued by NWS

Home | Current Version | Previous Version | Text Only | Print | Product List | Glossary On
Versions: 1 2 3 4 5 6 7 8 9 10 11 12 13 14 15 16 17 18 19 20 21 22 23 24 25 26 27
000
ASUS45 KSLC 030910
RWRUT

UTAH REGIONAL WEATHER ROUNDUP
NATIONAL WEATHER SERVICE SALT LAKE CITY UT
300 AM MDT TUE MAY 03 2016

UTZ001>011-023>025-031000-

NORTHERN UTAH

CITY           SKY/WX    TMP DP  RH WIND       PRES   REMARKS
BRIGHAM CITY   CLEAR     44  35  70 CALM      30.19S
HILL AFB       CLEAR     48  31  51 E16       30.19S
LOGAN          CLEAR     40  34  79 E5        30.20S
OGDEN          CLEAR     47  33  58 S10       30.18S
PROVO AIRPORT  CLEAR     45  30  57 CALM      30.20S
SALT LAKE CITY CLEAR     51  35  54 SE7       30.18F
VERNAL         CLEAR     43  24  47 CALM      30.20S
WENDOVER       CLEAR     48  36  61 CALM      30.18S
HEBER CITY     CLEAR     34  32  93 E3        30.23S

$$

UTZ012>022-026-027-031000-

SOUTHERN/CENTRAL UTAH

CITY           SKY/WX    TMP DP  RH WIND       PRES   REMARKS
BLANDING       CLEAR     39  34  81 N9        30.25F WCI  33
BRYCE CANYON   CLEAR     29  27  92 W5        30.28S WCI  24
CEDAR CITY     CLEAR     36  33  89 CALM      30.19F
DELTA          CLEAR     46  37  71 CALM      30.19S
HANKSVILLE     CLEAR     43  37  81 CALM      30.18S
MILFORD        NOT AVBL
MOAB/CYNLANDS  CLEAR     47  36  65 CALM      30.14S
PRICE          CLEAR     42  31  64 NE3       30.20S
ST GEORGE      SUNNY     55  41  58 SE3       30.13S
KANAB          CLEAR     46  37  71 N12       30.22

$$

REGIONAL REPORTS     COLORADO/ARIZONA

CITY           SKY/WX    TMP DP  RH WIND       PRES   REMARKS
CRAIG, CO      CLEAR     28  24  85 SE5       30.23S WCI  23
GRAND JUNCTION CLEAR     41  36  82 CALM      30.16S
RIFLE          CLEAR     39  30  70 CALM      30.20S
MONTROSE       CLEAR     41  31  67 SE8       30.21F
CORTEZ         CLEAR     33  31  92 NE7       30.19F WCI  27
PAGE, AZ       CLEAR     51  40  65 SE3       30.15S
GRAND CANYON   CLEAR     32  29  88 CALM      30.20F
KINGMAN        CLEAR     58  36  43 CALM      30.07F
FLAGSTAFF      CLEAR     30  30 100 CALM      30.19F

$$

REGIONAL REPORTS    NEVADA/IDAHO/WYOMING

CITY           SKY/WX    TMP DP  RH WIND       PRES   REMARKS
LAS VEGAS, NV  CLEAR     68  37  32 N10       30.00F
ELY            CLEAR     33  30  88 S10       30.24S WCI  25
ELKO           CLEAR     43  35  73 E5        30.18F
POCATELLO, ID  CLEAR     39  33  79 N3        30.19S
BURLEY         CLEAR     44  36  73 CALM      30.16R
EVANSTON, WY   CLOUDY    38  24  57 SE7       30.27S WCI  33
ROCK SPRINGS   CLOUDY    36  22  56 S5        30.25F WCI  32
KEMMERER         N/A     34  21  60 NW7       30.26S WCI  28

$$




USA.gov is the U.S. government's official web portal to all federal, state and local government web resources and services.